Regional Weather Roundup
Issued by NWS Charleston, SC

Current Version | Previous Version | Graphics & Text | Print | Product List | Glossary On
Versions: 1 2 3 4 5 6 7 8 9 10 11 12 13 14 15 16 17 18 19 20 21 22 23 24 25 26 27 28 29 30 31 32 33 34 35 36 37 38 39 40 41 42 43 44 45 46 47 48 49 50
781 ASUS42 KCHS 242328 RWRCHS REGIONAL WEATHER ROUNDUP NATIONAL WEATHER SERVICE CHARLESTON SC 700 PM EDT TUE MAY 24 2016 NOTE: "FAIR" INDICATES FEW OR NO CLOUDS BELOW 12,000 FEET WITH NO SIGNIFICANT WEATHER AND/OR OBSTRUCTIONS TO VISIBILITY. NOT ALL STATIONS ARE QUALITY CONTROLLED. USE DATA WITH CAUTION... ESPECIALLY DEWPOINT OBSERVATIONS. SCZ027-030-031-034>040-042>050-250000- ...SOUTHEAST SOUTH CAROLINA... CITY SKY/WX TMP DP RH WIND PRES REMARKS N CHARLESTON MOSUNNY 78 59 51 S13 30.12S WATERFRONT PRK N/A 76 63 63 S10 30.10S MOUNT PLEASANT FAIR 75 63 64 SE10 30.13R JOHNS ISLAND FAIR 75 63 64 S9 30.13R PINOPOLIS N/A 88 57 35 CALM 30.01F MONCKS CORNER FAIR 75 55 50 S6 30.11R SUMMERVILLE FAIR 79 63 57 S7 30.12R BEAUFORT MCAS SUNNY 78 63 59 S6 30.12F BEAUFORT ARPT FAIR 77 61 57 S5 30.12S HILTON HEAD IS SUNNY 81 66 61 SE9 30.13F WALTERBORO CLEAR 81 63 54 S8 30.12R ALLENDALE MOCLDY 82 57 42 CALM 30.09S ...SOUTHERN MIDLANDS AND PEE DEE... CITY SKY/WX TMP DP RH WIND PRES REMARKS GEORGETOWN FAIR 73 54 49 S7 30.14R KINGSTREE FAIR 81 48 32 CALM 30.10S ORANGEBURG SUNNY 83 57 41 S5 30.09F BARNWELL FAIR 86 57 37 CALM 30.11R AIKEN FAIR 81 50 34 W7 30.14R MANNING FAIR 79 55 44 CALM 30.10S COLUMBIA MOSUNNY 84 53 34 E6 30.08S SUMTER SUNNY 82 55 39 S8 30.07F FLORENCE SUNNY 82 51 34 SW6 30.10S MYRTLE BEACH MOSUNNY 75 54 46 SW14 30.13F N MYRTLE BEACH SUNNY 74 58 57 SW10 30.12S $$ GAZ063-065-086>088-099>101-113>116-118-119-134>141-150-250000- ...SOUTHEAST GEORGIA... CITY SKY/WX TMP DP RH WIND PRES REMARKS SAVANNAH ARPT PTSUNNY 79 62 56 S13 30.12S HUNTER AAF MOSUNNY 78 66 68 SE12 30.09F FORT STEWART MOSUNNY 80 65 58 SE6 30.09S STATESBORO SUNNY 79 64 61 CALM 30.10S SYLVANIA MOCLDY 84 63 48 CALM 30.11S CLAXTON FAIR 80 66 61 CALM 30.10S ...CSRA...CENTRAL AND FAR SOUTHEAST GEORGIA... CITY SKY/WX TMP DP RH WIND PRES REMARKS THOMSON SUNNY 85 59 41 SW3 30.15S AUGUSTA-BUSH SUNNY 80 64 58 CALM 30.09R AUGUSTA-DANIEL SUNNY 85 51 31 SW6 30.11R SWAINSBORO MOCLDY 86 50 28 W7 30.12R VIDALIA SUNNY 84 54 34 CALM 30.11R EASTMAN FAIR 81 56 42 CALM 30.13S HAZLEHURST FAIR 85 51 29 CALM 30.10R ALMA SUNNY 84 54 35 SE5 30.09F WAYCROSS SUNNY 82 60 46 SE9 30.10R JESUP FAIR 77 59 53 S5 30.11S BAXLEY FAIR 82 63 51 CALM 30.10R BRUNSWICK SUNNY 84 68 58 SE9 30.13S SAINT SIMONS SUNNY 78 67 68 SE12 30.12S $$ SCZ027-028-034-036>038-045-046-048>050-GAZ119-141-250000- ...LAKE AND SUPPLEMENTAL COASTAL OBSERVATIONS... STATION/POSITION TIME TEMP WIND PRES WAVE SWELL AIR SEA DIR/SP/G HT/PER HT/PER/DIR (UTC) (F) (DEG/KT/KT) (MB) (FT/S) (FT/S/D) WINYAH BAY NOT AVBL LAKE MURRAY 2200 83 CALM / 3 1018.3F ACE BASIN NERRS 2200 76 160/ 2 1020.0S FORT PULASKI 2300 75 76 1020.3 SAPELO ISLAND 2200 82 140/ 9 1020.0S $$ ANZ835-935-AMZ111-154-330-350-352-354-370-450-454-472-250000- ...C-MAN AND BUOY OBSERVATIONS... STATION/POSITION TIME TEMP WIND PRES WAVE SWELL AIR SEA DIR/SP/G HT/PER HT/PER/DIR (UTC) (F) (DEG/KT/KT) (MB) (FT/S) (FT/S/D) BUOY 41004 2150 75 76 130/ 8/ 10 1020.3 2/ 8 2/ 8 BUOY 41008 2150 76 77 130/ 10/ 12 1020.4 2/ 9 2/100/ 9 FOLLY BEACH CMAN 2200 74 170/ 12/ 13 1020.6F CAPERS NEARSHORE 2208 74 75 170/ 12/ 16 1020.0S FRIPP NEARSHORE 2308 75 76 160/ 10/ 14 1019.5F STATION/POSITION TIME TEMP WIND PRES WAVE SWELL AIR SEA DIR/SP/G HT/PER HT/PER/DIR (UTC) (F) (DEG/KT/KT) (MB) (FT/S) (FT/S/D) 5E ST. MARYS GA 2221 79 N/A 2/ 9 FRYING PAN BUOY 2200 74 77 200/ 12/ 14 1020.4F BUOY 41025 2150 73 79 230/ 16/ 17 1018.5 3/ 9 3/ 60/ 9 CAPE LOOKOUT NC 2200 72 220/ 12/ 17 1019.1R BUOY 41002 2150 73 78 330/ 6/ 10 1020.6 5/ 9 5/ 30/ 9 BUOY 41010 2220 78 79 70/ 10/ 12 1020.9R ST AUGUSTINE FL 2200 78 81 130/ 12/ 13 1021.1F $$

USA.gov is the U.S. government's official web portal to all federal, state and local government web resources and services.